Weather in Shemakhi

Azerbaijan     40°37′56″N   48°37′55″E
temp.,
°C
wind,
m/s
gust,
m/s
humid.,
%
clouds,
%
prec.,
mm/h
press.,
hPa
HPBL,
m
16 may, sun
sun1601:00+13nnw33270 0.0 101717
04:00+12nnw33260 0.0 101718
07:00+15nnw22350 0.0 101723
10:00+20ssw57260 0.0 10161188
13:00+21ssw78300 0.0 10151756
16:00+21ssw77320 0.0 10131692
19:00+17ssw48460 0.0 1013193
22:00+13wnw33440 0.0 101427
17 may, mon
mon1701:00+13wnw33440 0.0 101429
04:00+12wnw33482 0.0 101234
07:00+15w34505 0.0 1012102
10:00+19sw57402 0.0 1011590
13:00+22sw793871 0.0 1010798
16:00+23sw79390 0.0 1009801
19:00+19wsw34533 0.0 100961
22:00+14wnw226311 0.0 101113
18 may, tue
tue1801:00+16wnw22464 0.0 100911
04:00+16nnw224052 0.0 100812
07:00+18n124861 0.0 100817
10:00+21ese4539100 0.0 1008878
13:00+22sse3336100 0.0 10091263
16:00+23s45370 0.0 10081836
19:00+19wsw2558100 0.1 1010106
22:00+14nnw327138 0.5 101216
19 may, wed
wed1901:00+14nnw3265100 0.0 101220
04:00+13n3266100 0.0 101217
07:00+15nne116454 0.0 101363
10:00+19ssw46500 0.0 10131055
13:00+22sw78381 0.0 10131877
16:00+23w67311 0.1 10132272
19:00+19wsw38523 0.0 1015232
22:00+13n22790 0.0 101914
20 may, thu
thu2001:00+13n33820 0.0 101925
04:00+12n33850 0.0 102033
07:00+15nnw23691 0.0 102089
10:00+20sw44535 0.0 10191035
13:00+22sw77460 0.0 10181290
16:00+23sw78475 0.0 10161190
19:00+19sw485866 0.0 1016316
22:00+14w32720 0.0 101821